Weather Service Report


252 
ASUS45 KPSR 011410
RWRAZ 

ARIZONA REGIONAL HOURLY WEATHER ROUNDUP
NATIONAL WEATHER SERVICE PHOENIX AZ
700 AM MST FRI AUG 01 2014

NOTE: FAIR INDICATES FEW OR NO CLOUDS BELOW 12,000 FEET WITH NO
SIGNIFICANT WEATHER AND/OR OBSTRUCTIONS TO VISIBILITY.

AZZ001>003-036-011500-
NORTHWEST ARIZONA

CITY           SKY/WX    TMP DP  RH WIND       PRES   REMARKS
BULLHEAD CITY  MOSUNNY   90  59  35 SW3       29.89R
KINGMAN        PTSUNNY   78  51  38 SE12      30.08R
$$

AZZ004>008-015-016-018-011500-
NORTH CENTRAL ARIZONA

CITY           SKY/WX    TMP DP  RH WIND       PRES   REMARKS
GRAND CANYON   PTSUNNY   60  53  77 CALM      30.32R
WILLIAMS       PTSUNNY   59  52  77 SE8       30.39R
PRESCOTT       CLOUDY    68  56  65 S6        30.23S
FLAGSTAFF      CLOUDY    56  52  86 CALM      30.36R
PAYSON         CLOUDY    70  55  60 CALM      30.27R
PAGE           SUNNY     75  51  43 N5        30.15R
$$

AZZ009>014-017-011500-
NORTHEAST ARIZONA

CITY           SKY/WX    TMP DP  RH WIND       PRES   REMARKS
WINSLOW        PTSUNNY   70  55  59 SW7       30.22F
SAINT JOHNS    CLOUDY    63  59  87 CALM      30.27R
WINDOW ROCK    CLOUDY    61  56  83 CALM      30.34R
SHOW LOW       CLOUDY    61  52  72 S9        30.34S
$$

AZZ023-011500-
GREATER PHOENIX AREA

CITY           SKY/WX    TMP DP  RH WIND       PRES   REMARKS
PHOENIX        CLOUDY    83  66  56 SE5       29.99R
BUCKEYE          N/A     81  68  65 MISG      29.96R
GLENDALE       CLOUDY    84  66  54 VRB5      29.99R
LUKE AFB       NOT AVBL
DEER VALLEY    CLOUDY    83  64  52 E9        30.01R
SCOTTSDALE     CLOUDY    83  65  54 SE7       30.03R
MESA-FALCON    CLOUDY    81  66  61 E14       30.00R
MESA-GATEWAY   PTSUNNY   79  70  73 E14       30.01R
CHANDLER       CLOUDY    79  72  78 CALM      29.99R
$$

AZZ027-028-011500-
SOUTHWEST MARICOPA COUNTY AND PINAL COUNTY

CITY           SKY/WX    TMP DP  RH WIND       PRES   REMARKS
CASA GRANDE    CLOUDY    75  66  73 SE12      30.00R
$$

AZZ503-504-507>509-011500-
SOUTHEAST ARIZONA

CITY           SKY/WX    TMP DP  RH WIND       PRES   REMARKS
TUCSON         LGT RAIN  73  68  84 W8        30.12R
DAVIS-MONTHAN  CLOUDY    72  70  92 W5        30.11R
RYAN FIELD       N/A     73  70  88 CALM      30.11S
NOGALES        CLOUDY    71  61  70 N6        30.16R
SIERRA VISTA   CLOUDY    66  64  94 SE3       30.22S
DOUGLAS        CLOUDY    66  64  93 N7        30.17F
SAFFORD        PTSUNNY   75  63  66 E12       30.13R
$$

AZZ020-021-025-026-031-011500-
SOUTHWEST ARIZONA

CITY           SKY/WX    TMP DP  RH WIND       PRES   REMARKS
YUMA           PTSUNNY   91  64  40 SE9       29.84R
$$

CAZ031-033-041-043-047-048-061-011500-
SOUTHERN CALIFORNIA

CITY           SKY/WX    TMP DP  RH WIND       PRES   REMARKS
DOWNTOWN L.A.  PTSUNNY   68  63  84 CALM      29.91S
L.A. AIRPORT   CLOUDY    67  62  84 VRB3      29.92R
SAN DIEGO      PTSUNNY   70  63  78 N5        29.93R
BURBANK        SUNNY     68  60  75 E3        29.92S
ONTARIO        MOSUNNY   69  61  75 S3        29.93R
RIVERSIDE      SUNNY     68  62  81 CALM      29.94R
PALM SPRINGS   MOSUNNY   88  57  34 N8        29.90R
EL CENTRO NAS  MOSUNNY   88  77  69 SE14      29.82R HX 100
IMPERIAL       SUNNY     89  76  65 S14       29.81R HX 100
BLYTHE           N/A    N/A N/A N/A MISG      29.87R
NEEDLES        MOSUNNY   92  56  29 S5        29.89R
$$

NVZ020-UTZ003-011500-
SOUTHERN NEVADA-UTAH

CITY           SKY/WX    TMP DP  RH WIND       PRES   REMARKS
LAS VEGAS      MOSUNNY   89  52  28 CALM      29.92R
SALT LAKE CITY MOSUNNY   69  52  54 SE7       30.16R
$$

NMZ009-TXZ055-011500-
NEW MEXICO-WEST TEXAS

CITY           SKY/WX    TMP DP  RH WIND       PRES   REMARKS
ALBUQUERQUE    MOSUNNY   66  55  67 NE6       30.29S
EL PASO        LGT RAIN  67  63  87 N6        30.19R
$$


........................KEY........................
SKY/WX - SKY CONDITION/WEATHER
TMP    - TEMPERATURE IN FAHRENHEIT
DP     - DEW POINT IN FAHRENHEIT
RH     - RELATIVE HUMIDITY IN PERCENT
WIND   - DIRECTION AND SPEED IN MILES PER HOUR (MPH)
VRB    - VARIABLE WIND DIRECTION
PRES   - MEAN SEA LEVEL PRESSURE IN INCHES OF MERCURY
         F - FALLING PRESSURE   R - RISING PRESSURE
         S - STEADY PRESSURE
VSB    - VISIBILITY IN MILES
HX     - HEAT INDEX IN FAHRENHEIT
WCI    - WIND CHILL INDEX IN FAHRENHEIT
TC     - TEMPERATURE IN CELSIUS WHICH IS ALSO KNOWN AS
         TEMPERATURE IN CENTIGRADE
AFB    - AIR FORCE BASE
         LUKE AFB IS LUKE AIR FORCE BASE
         DAVIS-MONTHAN IS DAVIS-MONTHAN AIR FORCE BASE
NAS    - NAVAL AIR STATION
         EL CENTRO NAS IS EL CENTRO NAVAL AIR STATION
N/A    - NOT AVAILABLE

Return to Home page


Western Regional Climate Center, wrcc@dri.edu